Wahiawa, HI

2:00 AM HST on February 19, 2017 (GMT -1000)
Wheeler Army Air Field

Weather History for PHHI - November, 2013

Change the Weather History Date:

Sunday, November 24, 2013

  Actual Average Record
Temperature  
Mean Temperature 68 °F -  
Max Temperature 78 °F 76 °F 86 °F (1999)
Min Temperature 57 °F 65 °F 57 °F (2013)
Cooling Degree Days 2    
Growing Degree Days 18 (Base 50)    
Moisture  
Dew Point 58 °F    
Average Humidity 70    
Maximum Humidity 86    
Minimum Humidity 52    
Precipitation  
Precipitation 0.00 in - - ()
Sea Level Pressure  
Sea Level Pressure 29.97 in    
Wind  
Wind Speed 6 mph (North)    
Max Wind Speed 13 mph    
Max Gust Speed -    
Visibility 10 miles    
Events      
Averages and records for this station are not official NWS values.
T = Trace of Precipitation, MM = Missing Value Source: NWS Daily Summary

Daily Weather History Graph

Daily Weather History Graph

Search for Another Location

Airport or City:

Trip Planner

Search our weather history database for the weather conditions in past years. The results will help you decide how hot, cold, wet, or windy it might be!

Date:

Astronomy

Nov. 24, 2013 Rise Set
Actual Time 6:49 AM HST 5:48 PM HST
Civil Twilight 6:25 AM HST 6:12 PM HST
Nautical Twilight 5:58 AM HST 6:39 PM HST
Astronomical Twilight 5:31 AM HST 7:06 PM HST
Moon No Moon Rise 12:04 PM HST (11/24)
Length of Visible Light 11h 46m
Length of Day
10h 59m
Waning Gibbous, 59% of the Moon is Illuminated
Nov 24
Waning Gibbous
Nov 25
Last Quarter
Dec 2
New
Dec 9
First Quarter
Dec 16
Full

Hourly Weather History & Observations

Time (HST) Temp. Dew Point Humidity Pressure Visibility Wind Dir Wind Speed Gust Speed Precip Events Conditions
12:58 AM 64.4 °F 55.2 °F 72% 30.00 in 10.0 mi NNW 4.6 mph - N/A   Scattered Clouds
1:58 AM 60.6 °F 53.1 °F 76% 29.99 in 10.0 mi WNW 4.6 mph - N/A   Clear
2:58 AM 60.8 °F 53.6 °F 77% 29.97 in 10.0 mi NW 5.8 mph - N/A   Clear
3:58 AM 61.2 °F 53.8 °F 77% 29.95 in 10.0 mi NW 3.5 mph - N/A   Clear
4:58 AM 57.7 °F 52.5 °F 83% 29.95 in 10.0 mi WNW 6.9 mph - N/A   Clear
5:58 AM 58.8 °F 52.7 °F 80% 29.96 in 10.0 mi NW 4.6 mph - N/A   Clear
6:58 AM 59.4 °F 53.6 °F 81% 29.97 in 10.0 mi NW 5.8 mph - N/A   Clear
7:58 AM 64.2 °F 56.3 °F 75% 29.97 in 10.0 mi NW 2.3 mph - N/A   Clear
8:58 AM 71.4 °F 59.2 °F 65% 29.99 in 10.0 mi Variable 1.2 mph - N/A   Clear
9:58 AM 74.1 °F 58.6 °F 58% 30.01 in 10.0 mi Variable 3.5 mph - N/A   Partly Cloudy
10:58 AM 76.3 °F 58.6 °F 54% 30.01 in 10.0 mi ENE 12.7 mph - N/A   Clear
11:58 AM 78.1 °F 59.2 °F 52% 29.99 in 10.0 mi ENE 12.7 mph - N/A   Overcast
12:58 PM 77.7 °F 59.0 °F 52% 29.93 in 10.0 mi Variable 6.9 mph - N/A   Partly Cloudy
1:58 PM 76.1 °F 58.1 °F 54% 29.92 in 10.0 mi East 10.4 mph - N/A   Mostly Cloudy
2:58 PM 76.3 °F 58.8 °F 55% 29.91 in 10.0 mi ENE 11.5 mph - N/A   Clear
3:58 PM 75.9 °F 60.3 °F 58% 29.92 in 10.0 mi ENE 10.4 mph - N/A   Clear
4:58 PM 73.9 °F 59.4 °F 60% 29.93 in 10.0 mi ENE 11.5 mph - N/A   Clear
5:58 PM 70.9 °F 61.0 °F 71% 29.94 in 10.0 mi ENE 8.1 mph - N/A   Clear
6:58 PM 70.5 °F 60.4 °F 70% 29.96 in 10.0 mi ENE 5.8 mph - N/A   Scattered Clouds
7:58 PM 65.8 °F 59.4 °F 80% 29.98 in 10.0 mi WNW 2.3 mph - N/A   Mostly Cloudy
8:58 PM 64.9 °F 60.4 °F 85% 29.99 in 10.0 mi WNW 4.6 mph - N/A   Mostly Cloudy
9:58 PM 64.8 °F 60.6 °F 86% 29.99 in 10.0 mi NW 4.6 mph - N/A   Overcast
10:58 PM 68.7 °F 61.7 °F 78% 29.99 in 10.0 mi North 4.6 mph - N/A   Overcast
11:58 PM 64.9 °F 59.9 °F 84% 29.98 in 10.0 mi WNW 2.3 mph - N/A   Scattered Clouds